| time (UTC) | temp F | wind direction | speed knots | gust knots | rain 1hr in | rain 24hr in | rain mn in | humidity % | barometer mb |
| 20260506203109 | 47 | 340 | 2.6 | 4.3 | 0.00 | 0.39 | 0.34 | 85 | 1012.9 |
| 20260506202110 | 48 | 334 | 2.6 | 4.3 | 0.00 | 0.40 | 0.34 | 84 | 1012.9 |
| 20260506201109 | 49 | 349 | 3.5 | 4.3 | 0.00 | 0.41 | 0.34 | 84 | 1012.7 |
| 20260506200108 | 49 | 356 | 4.3 | 7.0 | 0.00 | 0.42 | 0.34 | 82 | 1012.6 |
| 20260506195108 | 49 | 354 | 4.3 | 7.8 | 0.00 | 0.43 | 0.34 | 81 | 1012.5 |
| 20260506194110 | 50 | 352 | 3.5 | 5.2 | 0.00 | 0.44 | 0.34 | 84 | 1012.5 |
| 20260506193109 | 50 | 358 | 2.6 | 4.3 | 0.00 | 0.44 | 0.34 | 85 | 1012.4 |
| 20260506192110 | 50 | 7 | 2.6 | 3.5 | 0.00 | 0.45 | 0.34 | 86 | 1012.2 |
| 20260506191106 | 50 | 12 | 2.6 | 4.3 | 0.00 | 0.46 | 0.34 | 86 | 1012.1 |
| 20260506190109 | 51 | 359 | 3.5 | 6.1 | 0.00 | 0.46 | 0.34 | 87 | 1012.1 |
| 20260506185107 | 51 | 352 | 3.5 | 6.1 | 0.00 | 0.48 | 0.34 | 88 | 1012.0 |
| 20260506184100 | 51 | 343 | 1.7 | 2.6 | 0.00 | 0.49 | 0.34 | 89 | 1011.8 |
| 20260506183106 | 51 | 299 | 1.7 | 2.6 | 0.00 | 0.50 | 0.34 | 89 | 1011.7 |
| 20260506182108 | 51 | 302 | 1.7 | 2.6 | 0.00 | 0.52 | 0.34 | 88 | 1011.6 |
| 20260506181101 | 51 | 300 | 2.6 | 4.3 | 0.00 | 0.54 | 0.34 | 88 | 1011.5 |
| 20260506180107 | 51 | 304 | 1.7 | 2.6 | 0.00 | 0.55 | 0.34 | 87 | 1011.3 |
| 20260506175105 | 51 | 309 | 2.6 | 4.3 | 0.00 | 0.56 | 0.34 | 87 | 1011.2 |
| 20260506174103 | 51 | 314 | 2.6 | 3.5 | 0.00 | 0.57 | 0.34 | 87 | 1011.2 |
| 20260506173100 | 51 | 314 | 2.6 | 4.3 | 0.00 | 0.57 | 0.34 | 86 | 1011.0 |
| 20260506171102 | 51 | 324 | 3.5 | 5.2 | 0.00 | 0.60 | 0.34 | 84 | 1010.9 |
| 20260506170059 | 51 | 326 | 3.5 | 5.2 | 0.00 | 0.61 | 0.34 | 84 | 1010.8 |
| 20260506165059 | 52 | 333 | 3.5 | 6.1 | 0.00 | 0.61 | 0.34 | 82 | 1010.8 |
| 20260506164102 | 52 | 328 | 4.3 | 7.8 | 0.00 | 0.62 | 0.34 | 82 | 1010.7 |
| 20260506163100 | 52 | 336 | 4.3 | 7.8 | 0.00 | 0.62 | 0.34 | 82 | 1010.7 |
| 20260506162105 | 52 | 328 | 4.3 | 8.7 | 0.00 | 0.63 | 0.34 | 80 | 1010.6 |
| 20260506161101 | 53 | 323 | 5.2 | 8.7 | 0.00 | 0.63 | 0.34 | 80 | 1010.6 |
| 20260506160058 | 53 | 319 | 4.3 | 8.7 | 0.00 | 0.63 | 0.34 | 80 | 1010.6 |
| 20260506155101 | 53 | 316 | 4.3 | 7.8 | 0.00 | 0.63 | 0.34 | 83 | 1010.6 |
| 20260506154105 | 53 | 315 | 4.3 | 8.7 | 0.00 | 0.63 | 0.34 | 83 | 1010.6 |
| 20260506151103 | 52 | 319 | 5.2 | 8.7 | 0.00 | 0.63 | 0.34 | 86 | 1010.6 |
| 20260506150100 | 52 | 325 | 3.5 | 7.0 | 0.00 | 0.63 | 0.34 | 85 | 1010.6 |
| 20260506145101 | 52 | 329 | 3.5 | 7.0 | 0.00 | 0.63 | 0.34 | 85 | 1010.6 |
| 20260506144059 | 51 | 327 | 3.5 | 7.0 | 0.00 | 0.63 | 0.34 | 85 | 1010.6 |
| 20260506143057 | 51 | 330 | 3.5 | 7.0 | 0.00 | 0.63 | 0.34 | 86 | 1010.6 |
| 20260506142058 | 51 | 330 | 3.5 | 7.0 | 0.00 | 0.63 | 0.34 | 87 | 1010.7 |
| 20260506141058 | 51 | 332 | 5.2 | 7.8 | 0.00 | 0.63 | 0.34 | 88 | 1010.8 |
| 20260506140106 | 51 | 335 | 3.5 | 7.0 | 0.00 | 0.63 | 0.34 | 89 | 1010.8 |
| 20260506134059 | 51 | 328 | 3.5 | 6.1 | 0.00 | 0.63 | 0.34 | 89 | 1010.7 |
| 20260506133059 | 51 | 335 | 4.3 | 7.0 | 0.00 | 0.63 | 0.34 | 89 | 1010.7 |
| 20260506131059 | 51 | 328 | 5.2 | 9.6 | 0.00 | 0.63 | 0.34 | 85 | 1010.5 |
| 20260506124057 | 50 | 345 | 3.5 | 7.0 | 0.00 | 0.63 | 0.34 | 90 | 1010.6 |
| 20260506123100 | 50 | 350 | 5.2 | 7.8 | 0.00 | 0.63 | 0.34 | 90 | 1010.5 |
| 20260506122058 | 50 | 355 | 6.1 | 8.7 | 0.00 | 0.63 | 0.34 | 91 | 1010.5 |
| 20260506121055 | 50 | 350 | 7.0 | 10.4 | 0.00 | 0.63 | 0.34 | 91 | 1010.4 |
| 20260506120056 | 50 | 356 | 6.1 | 10.4 | 0.00 | 0.63 | 0.34 | 91 | 1010.3 |
| 20260506115057 | 50 | 353 | 7.0 | 13.0 | 0.00 | 0.63 | 0.34 | 92 | 1010.3 |
| 20260506114058 | 49 | 354 | 7.0 | 12.2 | 0.00 | 0.63 | 0.34 | 93 | 1010.4 |
| 20260506113059 | 49 | 359 | 7.0 | 11.3 | 0.00 | 0.63 | 0.34 | 94 | 1010.3 |
| 20260506112059 | 49 | 357 | 7.8 | 12.2 | 0.00 | 0.63 | 0.34 | 96 | 1010.4 |
| 20260506111058 | 48 | 354 | 7.0 | 10.4 | 0.00 | 0.63 | 0.34 | 98 | 1010.5 |
| 20260506110057 | 48 | 351 | 7.0 | 11.3 | 0.01 | 0.63 | 0.34 | 99 | 1010.6 |
| 20260506104058 | 47 | 353 | 6.1 | 9.6 | 0.02 | 0.63 | 0.34 | 99 | 1010.6 |
| 20260506103059 | 47 | 352 | 6.1 | 9.6 | 0.02 | 0.63 | 0.34 | 10 | 1010.6 |
| 20260506102059 | 47 | 354 | 6.1 | 8.7 | 0.02 | 0.63 | 0.34 | 10 | 1010.5 |
| 20260506101057 | 47 | 352 | 4.3 | 7.8 | 0.02 | 0.63 | 0.34 | 10 | 1010.5 |
| 20260506100056 | 46 | 354 | 4.3 | 7.8 | 0.02 | 0.63 | 0.34 | 10 | 1010.4 |
| 20260506095058 | 46 | 349 | 4.3 | 7.0 | 0.02 | 0.62 | 0.33 | 10 | 1010.3 |
| 20260506094059 | 46 | 347 | 4.3 | 6.1 | 0.02 | 0.62 | 0.33 | 10 | 1010.2 |
| 20260506092057 | 46 | 355 | 4.3 | 7.0 | 0.02 | 0.61 | 0.32 | 10 | 1010.1 |
| 20260506091057 | 46 | 352 | 5.2 | 7.8 | 0.02 | 0.61 | 0.31 | 10 | 1010.1 |
| 20260506090059 | 46 | 347 | 4.3 | 8.7 | 0.02 | 0.61 | 0.31 | 10 | 1010.0 |
| 20260506085058 | 46 | 346 | 5.2 | 8.7 | 0.02 | 0.61 | 0.31 | 10 | 1009.9 |
| 20260506084056 | 46 | 349 | 6.1 | 9.6 | 0.01 | 0.61 | 0.31 | 10 | 1009.8 |
| 20260506083055 | 46 | 351 | 7.0 | 10.4 | 0.02 | 0.61 | 0.31 | 10 | 1009.7 |
| 20260506081055 | 46 | 349 | 6.1 | 10.4 | 0.01 | 0.60 | 0.30 | 10 | 1009.6 |
| 20260506073056 | 45 | 347 | 5.2 | 9.6 | 0.02 | 0.61 | 0.30 | 10 | 1009.3 |
| 20260506062054 | 45 | 339 | 5.2 | 9.6 | 0.08 | 0.60 | 0.28 | 10 | 1009.0 |
| 20260506061053 | 45 | 343 | 5.2 | 10.4 | 0.08 | 0.59 | 0.28 | 10 | 1009.0 |
| 20260506051054 | 45 | 348 | 5.2 | 9.6 | 0.06 | 0.53 | 0.20 | 10 | 1009.0 |
| 20260506045052 | 45 | 348 | 5.2 | 8.7 | 0.06 | 0.52 | 0.19 | 10 | 1008.9 |
| 20260506044054 | 45 | 346 | 4.3 | 6.1 | 0.05 | 0.52 | 0.18 | 10 | 1008.9 |
| 20260506043056 | 45 | 354 | 5.2 | 9.6 | 0.04 | 0.52 | 0.17 | 10 | 1008.9 |
| 20260506042052 | 45 | 348 | 4.3 | 7.8 | 0.04 | 0.51 | 0.17 | 10 | 1008.8 |
| 20260506041053 | 45 | 353 | 5.2 | 8.7 | 0.03 | 0.50 | 0.16 | 10 | 1008.7 |
| 20260506035057 | 46 | 355 | 5.2 | 7.8 | 0.02 | 0.49 | 0.14 | 10 | 1008.8 |
| 20260506034058 | 46 | 357 | 6.1 | 9.6 | 0.02 | 0.48 | 0.13 | 99 | 1008.8 |
| 20260506032054 | 46 | 356 | 5.2 | 9.6 | 0.03 | 0.48 | 0.13 | 99 | 1008.9 |
| 20260506031054 | 46 | 359 | 5.2 | 8.7 | 0.02 | 0.47 | 0.13 | 99 | 1008.8 |
| 20260506030052 | 46 | 4 | 6.1 | 10.4 | 0.02 | 0.47 | 0.13 | 99 | 1008.9 |
| 20260506025054 | 46 | 358 | 7.0 | 11.3 | 0.02 | 0.46 | 0.12 | 99 | 1008.9 |
| 20260506024054 | 47 | 351 | 4.3 | 8.7 | 0.02 | 0.46 | 0.12 | 99 | 1008.9 |
| 20260506023057 | 47 | 7 | 6.1 | 8.7 | 0.02 | 0.46 | 0.11 | 99 | 1009.0 |
| 20260506021056 | 47 | 2 | 7.0 | 11.3 | 0.02 | 0.45 | 0.10 | 99 | 1009.0 |
| 20260506020056 | 47 | 1 | 5.2 | 8.7 | 0.02 | 0.45 | 0.10 | 10 | 1008.9 |
| 20260506015056 | 47 | 1 | 7.0 | 10.4 | 0.02 | 0.45 | 0.10 | 10 | 1009.0 |
| 20260506014055 | 47 | 4 | 6.1 | 9.6 | 0.03 | 0.45 | 0.10 | 10 | 1009.0 |
| 20260506013054 | 47 | 2 | 6.1 | 10.4 | 0.02 | 0.44 | 0.09 | 99 | 1009.1 |
| 20260506012054 | 47 | 1 | 6.1 | 10.4 | 0.03 | 0.44 | 0.09 | 99 | 1009.1 |
| 20260506011055 | 47 | 8 | 6.1 | 10.4 | 0.03 | 0.43 | 0.09 | 99 | 1009.1 |
| 20260506004054 | 47 | 9 | 5.2 | 8.7 | 0.03 | 0.43 | 0.08 | 10 | 1009.3 |
| 20260506003053 | 47 | 11 | 5.2 | 9.6 | 0.02 | 0.42 | 0.07 | 10 | 1009.3 |
| 20260506002056 | 48 | 13 | 6.1 | 11.3 | 0.03 | 0.42 | 0.07 | 10 | 1009.4 |
| 20260506001054 | 47 | 17 | 6.1 | 10.4 | 0.03 | 0.41 | 0.06 | 10 | 1009.4 |
| 20260506000100 | 48 | 11 | 7.0 | 11.3 | 0.02 | 0.40 | 0.06 | 10 | 1009.5 |
| 20260505235103 | 48 | 16 | 6.1 | 10.4 | 0.03 | 0.40 | 0.06 | 10 | 1009.6 |
| 20260505234101 | 48 | 11 | 6.1 | 9.6 | 0.02 | 0.39 | 0.05 | 10 | 1009.6 |
| 20260505233105 | 48 | 15 | 7.0 | 10.4 | 0.03 | 0.39 | 0.05 | 10 | 1009.7 |
| 20260505232106 | 48 | 16 | 6.1 | 9.6 | 0.03 | 0.39 | 0.05 | 10 | 1009.7 |
| 20260505231106 | 48 | 19 | 7.0 | 11.3 | 0.03 | 0.39 | 0.04 | 10 | 1009.7 |
| 20260505230107 | 48 | 13 | 6.1 | 9.6 | 0.03 | 0.38 | 0.03 | 10 | 1009.8 |
| 20260505225106 | 48 | 13 | 6.1 | 10.4 | 0.03 | 0.38 | 0.03 | 10 | 1009.8 |
| 20260505224103 | 48 | 13 | 6.1 | 12.2 | 0.03 | 0.37 | 0.02 | 10 | 1009.8 |
| 20260505223103 | 48 | 11 | 6.1 | 9.6 | 0.04 | 0.37 | 0.02 | 10 | 1009.9 |
| 20260505222106 | 48 | 13 | 7.0 | 13.0 | 0.04 | 0.36 | 0.02 | 10 | 1009.9 |
| 20260505221107 | 48 | 14 | 6.1 | 9.6 | 0.05 | 0.36 | 0.02 | 10 | 1009.9 |
| 20260505214113 | 48 | 15 | 7.0 | 11.3 | 0.05 | 0.35 | 0.35 | 10 | 1010.1 |
| 20260505213110 | 48 | 12 | 7.0 | 11.3 | 0.05 | 0.34 | 0.34 | 10 | 1010.1 |
| 20260505212110 | 48 | 4 | 7.8 | 13.9 | 0.05 | 0.33 | 0.33 | 10 | 1010.1 |
| 20260505211108 | 48 | 6 | 7.0 | 12.2 | 0.05 | 0.32 | 0.32 | 10 | 1010.2 |
| 20260505210106 | 48 | 6 | 6.1 | 9.6 | 0.05 | 0.31 | 0.31 | 10 | 1010.2 |
| 20260505205106 | 48 | 11 | 6.1 | 12.2 | 0.06 | 0.31 | 0.31 | 10 | 1010.2 |